Time,TemperatureF,DewpointF,PressureIn,WindDirection,WindDirectionDegrees,WindSpeedMPH,WindSpeedGustMPH,Humidity,HourlyPrecipIn,Conditions,Clouds,dailyrainin,SoftwareType,DateUTC
2013-02-03 00:07:00,6.2,3.0,30.05,West,270,0.0,0.0,85,0.00,,,0.00,weatherlink.com 1.10,2013-02-03 06:07:00,
2013-02-03 00:21:00,6.0,2.0,30.05,West,270,0.0,0.0,84,0.00,,,0.00,weatherlink.com 1.10,2013-02-03 06:21:00,
2013-02-03 00:36:00,6.0,3.0,30.04,West,260,1.0,1.0,85,0.00,,,0.00,weatherlink.com 1.10,2013-02-03 06:36:00,
2013-02-03 00:51:00,6.3,3.0,30.03,West,266,0.0,0.0,85,0.00,,,0.00,weatherlink.com 1.10,2013-02-03 06:51:00,
2013-02-03 01:06:00,6.7,3.0,30.02,West,276,0.0,0.0,85,0.00,,,0.00,weatherlink.com 1.10,2013-02-03 07:06:00,
2013-02-03 01:21:00,7.2,4.0,30.03,WNW,285,0.0,2.0,86,0.00,,,0.00,weatherlink.com 1.10,2013-02-03 07:21:00,
2013-02-03 01:36:00,7.0,3.0,30.03,West,270,0.0,1.0,85,0.00,,,0.00,weatherlink.com 1.10,2013-02-03 07:36:00,
2013-02-03 01:51:00,7.1,4.0,30.02,SW,221,0.0,1.0,86,0.00,,,0.00,weatherlink.com 1.10,2013-02-03 07:51:00,
2013-02-03 02:06:00,7.5,4.0,30.02,West,262,0.0,1.0,86,0.00,,,0.00,weatherlink.com 1.10,2013-02-03 08:06:00,
2013-02-03 02:21:00,7.8,5.0,30.01,WNW,287,0.0,2.0,87,0.00,,,0.00,weatherlink.com 1.10,2013-02-03 08:21:00,
2013-02-03 02:36:00,8.2,5.0,30.00,SSE,157,0.0,2.0,87,0.00,,,0.00,weatherlink.com 1.10,2013-02-03 08:36:00,
2013-02-03 02:51:00,8.5,5.0,30.00,WSW,250,0.0,1.0,87,0.00,,,0.00,weatherlink.com 1.10,2013-02-03 08:51:00,
2013-02-03 03:21:00,8.9,6.0,29.99,SW,221,0.0,0.0,87,0.00,,,0.00,weatherlink.com 1.10,2013-02-03 09:21:00,
2013-02-03 03:36:00,9.2,6.0,29.99,West,259,1.0,2.0,88,0.00,,,0.00,weatherlink.com 1.10,2013-02-03 09:36:00,
2013-02-03 03:51:00,9.4,6.0,29.98,SW,229,1.0,3.0,87,0.00,,,0.00,weatherlink.com 1.10,2013-02-03 09:51:00,
2013-02-03 04:06:00,9.2,6.0,29.97,SW,228,0.0,2.0,87,0.00,,,0.00,weatherlink.com 1.10,2013-02-03 10:06:00,
2013-02-03 04:21:00,8.7,6.0,29.98,SW,236,0.0,0.0,87,0.00,,,0.00,weatherlink.com 1.10,2013-02-03 10:21:00,
2013-02-03 04:36:00,8.8,6.0,29.98,WNW,288,1.0,1.0,88,0.00,,,0.00,weatherlink.com 1.10,2013-02-03 10:36:00,
2013-02-03 04:52:00,9.1,6.0,29.99,WNW,284,0.0,3.0,88,0.00,,,0.00,weatherlink.com 1.10,2013-02-03 10:52:00,
2013-02-03 05:07:00,9.2,6.0,29.99,SW,232,1.0,2.0,88,0.00,,,0.00,weatherlink.com 1.10,2013-02-03 11:07:00,
2013-02-03 05:22:00,9.4,7.0,29.98,West,276,2.0,3.0,88,0.00,,,0.00,weatherlink.com 1.10,2013-02-03 11:22:00,
2013-02-03 05:37:00,9.7,7.0,29.98,West,266,0.0,3.0,88,0.00,,,0.00,weatherlink.com 1.10,2013-02-03 11:37:00,
2013-02-03 06:07:00,10.2,7.0,29.99,WNW,298,2.0,4.0,88,0.00,,,0.00,weatherlink.com 1.10,2013-02-03 12:07:00,
2013-02-03 06:22:00,10.4,8.0,29.99,West,278,0.0,4.0,88,0.00,,,0.00,weatherlink.com 1.10,2013-02-03 12:22:00,
2013-02-03 06:37:00,10.7,8.0,29.99,WSW,238,1.0,4.0,89,0.00,,,0.00,weatherlink.com 1.10,2013-02-03 12:37:00,
2013-02-03 06:52:00,10.9,8.0,29.99,WNW,290,3.0,5.0,89,0.00,,,0.00,weatherlink.com 1.10,2013-02-03 12:52:00,
2013-02-03 07:07:00,11.1,9.0,30.00,South,185,0.0,4.0,89,0.00,,,0.00,weatherlink.com 1.10,2013-02-03 13:07:00,
2013-02-03 07:22:00,11.3,9.0,30.00,WNW,288,2.0,5.0,89,0.00,,,0.00,weatherlink.com 1.10,2013-02-03 13:22:00,
2013-02-03 07:37:00,11.5,9.0,30.01,West,278,3.0,5.0,89,0.00,,,0.00,weatherlink.com 1.10,2013-02-03 13:37:00,
2013-02-03 07:52:00,11.6,9.0,30.01,West,280,3.0,6.0,89,0.00,,,0.00,weatherlink.com 1.10,2013-02-03 13:52:00,
2013-02-03 08:07:00,11.9,9.0,30.01,WNW,285,3.0,6.0,89,0.00,,,0.00,weatherlink.com 1.10,2013-02-03 14:07:00,
2013-02-03 08:22:00,12.2,10.0,30.01,NW,305,3.0,5.0,89,0.00,,,0.00,weatherlink.com 1.10,2013-02-03 14:22:00,
2013-02-03 08:37:00,12.5,10.0,30.01,WNW,291,4.0,4.0,89,0.00,,,0.00,weatherlink.com 1.10,2013-02-03 14:37:00,
2013-02-03 08:52:00,12.9,10.0,30.01,WNW,285,3.0,5.0,88,0.00,,,0.00,weatherlink.com 1.10,2013-02-03 14:52:00,
2013-02-03 09:07:00,13.7,11.0,30.01,WNW,293,4.0,6.0,87,0.00,,,0.00,weatherlink.com 1.10,2013-02-03 15:07:00,
2013-02-03 09:22:00,14.2,11.0,30.01,NW,318,5.0,8.0,86,0.00,,,0.00,weatherlink.com 1.10,2013-02-03 15:22:00,
2013-02-03 09:37:00,15.1,11.0,30.01,WNW,289,5.0,8.0,84,0.00,,,0.00,weatherlink.com 1.10,2013-02-03 15:37:00,
2013-02-03 09:52:00,15.3,11.0,30.02,WNW,294,9.0,17.0,81,0.00,,,0.00,weatherlink.com 1.10,2013-02-03 15:52:00,
2013-02-03 10:07:00,15.5,10.0,30.02,NW,314,8.0,14.0,79,0.00,,,0.00,weatherlink.com 1.10,2013-02-03 16:07:00,
2013-02-03 10:22:00,15.7,10.0,30.02,NW,309,6.0,11.0,79,0.00,,,0.00,weatherlink.com 1.10,2013-02-03 16:22:00,
2013-02-03 10:37:00,15.8,10.0,30.03,WNW,302,10.0,16.0,78,0.00,,,0.00,weatherlink.com 1.10,2013-02-03 16:37:00,
2013-02-03 10:53:00,16.2,11.0,30.04,WNW,283,15.0,15.0,78,0.00,,,0.00,weatherlink.com 1.10,2013-02-03 16:53:00,
2013-02-03 11:07:00,16.4,10.0,30.05,NW,306,9.0,14.0,75,0.00,,,0.00,weatherlink.com 1.10,2013-02-03 17:07:00,
2013-02-03 11:22:00,16.5,10.0,30.04,WNW,295,3.0,14.0,75,0.00,,,0.00,weatherlink.com 1.10,2013-02-03 17:22:00,
2013-02-03 11:37:00,16.7,10.0,30.04,NW,316,10.0,12.0,74,0.00,,,0.00,weatherlink.com 1.10,2013-02-03 17:37:00,
2013-02-03 11:52:00,16.9,10.0,30.04,WNW,300,7.0,15.0,74,0.00,,,0.00,weatherlink.com 1.10,2013-02-03 17:52:00,
2013-02-03 12:07:00,17.3,10.0,30.04,NW,311,10.0,15.0,73,0.00,,,0.00,weatherlink.com 1.10,2013-02-03 18:07:00,
2013-02-03 12:23:00,17.5,10.0,30.04,NW,326,7.0,15.0,73,0.00,,,0.00,weatherlink.com 1.10,2013-02-03 18:23:00,
2013-02-03 12:37:00,17.7,11.0,30.04,WNW,289,12.0,12.0,75,0.00,,,0.00,weatherlink.com 1.10,2013-02-03 18:37:00,
2013-02-03 12:53:00,17.8,11.0,30.04,West,278,8.0,13.0,73,0.00,,,0.00,weatherlink.com 1.10,2013-02-03 18:53:00,
2013-02-03 13:07:00,18.1,11.0,30.03,WNW,284,6.0,16.0,72,0.00,,,0.00,weatherlink.com 1.10,2013-02-03 19:07:00,
2013-02-03 13:22:00,18.6,11.0,30.03,NW,310,5.0,13.0,71,0.00,,,0.00,weatherlink.com 1.10,2013-02-03 19:22:00,
2013-02-03 13:38:00,19.1,10.0,30.02,NW,307,6.0,10.0,69,0.00,,,0.00,weatherlink.com 1.10,2013-02-03 19:38:00,
2013-02-03 13:54:00,19.6,11.0,30.03,West,277,4.0,10.0,70,0.00,,,0.00,weatherlink.com 1.10,2013-02-03 19:54:00,
2013-02-03 14:08:00,19.7,12.0,30.04,WNW,283,6.0,14.0,72,0.00,,,0.00,weatherlink.com 1.10,2013-02-03 20:08:00,
2013-02-03 14:23:00,19.9,11.0,30.03,West,281,4.0,10.0,69,0.00,,,0.00,weatherlink.com 1.10,2013-02-03 20:23:00,
2013-02-03 14:38:00,19.9,11.0,30.04,WNW,283,6.0,11.0,69,0.00,,,0.00,weatherlink.com 1.10,2013-02-03 20:38:00,
2013-02-03 14:53:00,20.1,11.0,30.03,West,267,5.0,10.0,69,0.00,,,0.00,weatherlink.com 1.10,2013-02-03 20:53:00,
2013-02-03 15:08:00,20.4,12.0,30.03,West,267,2.0,9.0,70,0.00,,,0.00,weatherlink.com 1.10,2013-02-03 21:08:00,
2013-02-03 15:23:00,20.5,12.0,30.03,WNW,287,5.0,9.0,70,0.00,,,0.00,weatherlink.com 1.10,2013-02-03 21:23:00,
2013-02-03 15:38:00,20.0,12.0,30.04,SSE,156,2.0,9.0,71,0.00,,,0.00,weatherlink.com 1.10,2013-02-03 21:38:00,
2013-02-03 15:53:00,19.6,12.0,30.03,WSW,254,2.0,8.0,72,0.00,,,0.00,weatherlink.com 1.10,2013-02-03 21:53:00,
2013-02-03 16:08:00,19.6,12.0,30.03,WSW,240,4.0,8.0,71,0.00,,,0.00,weatherlink.com 1.10,2013-02-03 22:08:00,
2013-02-03 16:23:00,18.9,11.0,30.03,West,264,3.0,7.0,72,0.00,,,0.00,weatherlink.com 1.10,2013-02-03 22:23:00,
2013-02-03 16:38:00,18.6,11.0,30.04,WSW,248,2.0,6.0,73,0.00,,,0.00,weatherlink.com 1.10,2013-02-03 22:38:00,
2013-02-03 16:53:00,18.1,11.0,30.03,WNW,293,2.0,7.0,73,0.00,,,0.00,weatherlink.com 1.10,2013-02-03 22:53:00,
2013-02-03 17:08:00,17.3,11.0,30.03,WNW,294,3.0,5.0,75,0.00,,,0.00,weatherlink.com 1.10,2013-02-03 23:08:00,
2013-02-03 17:23:00,16.4,10.0,30.04,WSW,255,1.0,4.0,77,0.00,,,0.00,weatherlink.com 1.10,2013-02-03 23:23:00,
2013-02-03 17:38:00,15.8,10.0,30.03,West,270,1.0,4.0,78,0.00,,,0.00,weatherlink.com 1.10,2013-02-03 23:38:00,
2013-02-03 17:53:00,15.4,10.0,30.04,SW,232,2.0,4.0,78,0.00,,,0.00,weatherlink.com 1.10,2013-02-03 23:53:00,
2013-02-03 18:08:00,15.1,10.0,30.05,SW,217,1.0,3.0,79,0.00,,,0.00,weatherlink.com 1.10,2013-02-04 00:08:00,
2013-02-03 18:23:00,14.9,10.0,30.05,West,262,2.0,3.0,79,0.00,,,0.00,weatherlink.com 1.10,2013-02-04 00:23:00,
2013-02-03 18:38:00,15.3,10.0,30.05,West,271,1.0,3.0,79,0.00,,,0.00,weatherlink.com 1.10,2013-02-04 00:38:00,
2013-02-03 18:53:00,15.5,10.0,30.04,WSW,237,1.0,3.0,79,0.00,,,0.00,weatherlink.com 1.10,2013-02-04 00:53:00,
2013-02-03 19:08:00,15.8,10.0,30.05,WNW,288,3.0,4.0,79,0.00,,,0.00,weatherlink.com 1.10,2013-02-04 01:08:00,
2013-02-03 19:23:00,16.2,11.0,30.05,WNW,282,3.0,5.0,78,0.00,,,0.00,weatherlink.com 1.10,2013-02-04 01:23:00,
2013-02-03 19:38:00,16.6,11.0,30.05,WNW,295,2.0,5.0,77,0.00,,,0.00,weatherlink.com 1.10,2013-02-04 01:38:00,
2013-02-03 19:53:00,16.8,11.0,30.05,WNW,289,4.0,5.0,77,0.00,,,0.00,weatherlink.com 1.10,2013-02-04 01:53:00,
2013-02-03 20:08:00,17.0,11.0,30.05,WNW,287,3.0,6.0,77,0.00,,,0.00,weatherlink.com 1.10,2013-02-04 02:08:00,
2013-02-03 20:23:00,17.1,11.0,30.05,WNW,283,3.0,6.0,77,0.00,,,0.00,weatherlink.com 1.10,2013-02-04 02:23:00,
2013-02-03 20:38:00,17.1,11.0,30.05,WNW,297,3.0,7.0,77,0.00,,,0.00,weatherlink.com 1.10,2013-02-04 02:38:00,
2013-02-03 20:53:00,17.1,11.0,30.06,West,274,3.0,5.0,77,0.00,,,0.00,weatherlink.com 1.10,2013-02-04 02:53:00,
2013-02-03 21:08:00,17.1,11.0,30.06,West,270,3.0,7.0,78,0.00,,,0.00,weatherlink.com 1.10,2013-02-04 03:08:00,
2013-02-03 21:23:00,17.3,12.0,30.07,West,267,1.0,6.0,78,0.00,,,0.00,weatherlink.com 1.10,2013-02-04 03:23:00,
2013-02-03 21:38:00,17.3,12.0,30.07,WNW,285,3.0,6.0,78,0.00,,,0.00,weatherlink.com 1.10,2013-02-04 03:38:00,
2013-02-03 21:53:00,17.2,12.0,30.06,WNW,295,2.0,6.0,81,0.00,,,0.00,weatherlink.com 1.10,2013-02-04 03:53:00,
2013-02-03 22:08:00,16.9,13.0,30.06,WNW,287,2.0,6.0,84,0.00,,,0.00,weatherlink.com 1.10,2013-02-04 04:08:00,
2013-02-03 22:23:00,16.9,13.0,30.06,NW,308,2.0,4.0,86,0.00,,,0.00,weatherlink.com 1.10,2013-02-04 04:23:00,
2013-02-03 22:38:00,16.8,14.0,30.07,WNW,289,1.0,4.0,87,0.00,,,0.00,weatherlink.com 1.10,2013-02-04 04:38:00,
2013-02-03 22:53:00,16.7,14.0,30.06,WNW,285,1.0,4.0,88,0.00,,,0.00,weatherlink.com 1.10,2013-02-04 04:53:00,
2013-02-03 23:08:00,16.7,14.0,30.05,WNW,295,1.0,2.0,89,0.00,,,0.00,weatherlink.com 1.10,2013-02-04 05:08:00,
2013-02-03 23:23:00,16.7,14.0,30.05,WSW,248,0.0,1.0,89,0.00,,,0.00,weatherlink.com 1.10,2013-02-04 05:23:00,
2013-02-03 23:38:00,16.7,14.0,30.05,WNW,285,1.0,1.0,89,0.00,,,0.00,weatherlink.com 1.10,2013-02-04 05:38:00,
2013-02-03 23:54:00,16.7,14.0,30.04,WNW,288,0.0,1.0,90,0.00,,,0.00,weatherlink.com 1.10,2013-02-04 05:54:00,